Weather History for KUIL - May, 2012

Change the Weather History Date:

Friday, May 11, 2012

  Actual Average Record
Temperature  
Mean Temperature 47 °F 51 °F  
Max Temperature 63 °F 59 °F 87 °F (1971)
Min Temperature 31 °F 42 °F 31 °F (2012)
Degree Days  
Heating Degree Days 18 14  
Month to date heating degree days 169  
Since 1 July heating degree days 5211  
Cooling Degree Days 0 0  
Month to date cooling degree days 0  
Year to date cooling degree days 0  
Moisture  
Dew Point 22 °F    
Average Humidity 55    
Maximum Humidity 93    
Minimum Humidity 4    
Precipitation  
Precipitation 0.00 in 0.16 in 1.00 in (1987)
Month to date precipitation 2.04  
Year to date precipitation 45.68  
Sea Level Pressure  
Sea Level Pressure 30.28 in    
Wind  
Wind Speed 5 mph (NW)    
Max Wind Speed 14 mph    
Max Gust Speed 18 mph    
Visibility 10 miles    
Events      
T = Trace of Precipitation, MM = Missing Value Source: NWS Daily Summary

Daily Weather History Graph

Daily Weather History Graph

Search for Another Location

Airport or City:

Trip Planner

Search our weather history database for the weather conditions in past years. The results will help you decide how hot, cold, wet, or windy it might be!

Date:

Astronomy

May. 11, 2012 Rise Set
Actual Time 5:44 AM PDT 8:45 PM PDT
Civil Twilight 5:07 AM PDT 9:22 PM PDT
Nautical Twilight 4:20 AM PDT 10:09 PM PDT
Astronomical Twilight 3:23 AM PDT 11:07 PM PDT
Moon 1:25 AM PDT (5/11) 11:28 AM PDT (5/11)
Length of Visible Light 16h 14m
Length of Day
15h 01m
Waning Gibbous, 62% of the Moon is Illuminated
May 11
Waning Gibbous
May 12
Last Quarter
May 20
New
May 28
First Quarter
Jun 4
Full

Hourly Weather History & Observations

Time (PDT) Temp. Windchill Dew Point Humidity Pressure Visibility Wind Dir Wind Speed Gust Speed Precip Events Conditions
12:53 AM 37.9 °F - 36.0 °F 93% 30.37 in 10.0 mi Calm Calm - N/A   Clear
1:53 AM 37.0 °F 32.4 °F 35.1 °F 93% 30.36 in 10.0 mi ENE 5.8 mph - N/A   Clear
2:53 AM 36.0 °F - 34.0 °F 93% 30.36 in 10.0 mi Calm Calm - N/A   Clear
3:53 AM 34.0 °F - 30.0 °F 85% 30.35 in 10.0 mi Calm Calm - N/A   Clear
4:53 AM 34.0 °F - 30.9 °F 89% 30.35 in 10.0 mi Calm Calm - N/A   Clear
5:53 AM 33.1 °F - 30.0 °F 89% 30.33 in 10.0 mi Calm Calm - N/A   Clear
6:53 AM 35.1 °F - 33.1 °F 92% 30.33 in 10.0 mi Calm Calm - N/A   Clear
7:53 AM 41.0 °F - 36.0 °F 82% 30.34 in 10.0 mi Calm Calm - N/A   Clear
8:53 AM 48.0 °F - 37.0 °F 66% 30.33 in 10.0 mi Calm Calm - N/A   Clear
9:53 AM 54.0 °F - - N/A% 30.32 in 10.0 mi SSW 4.6 mph - N/A   Clear
10:53 AM 59.0 °F - - N/A% 30.31 in 10.0 mi North 5.8 mph - N/A   Clear
11:53 AM 57.0 °F - - N/A% 30.30 in 10.0 mi SW 11.5 mph - N/A   Clear
12:53 PM 57.9 °F - - N/A% 30.29 in 10.0 mi WSW 10.4 mph - N/A   Clear
1:53 PM 60.1 °F - - N/A% 30.27 in 10.0 mi WSW 8.1 mph - N/A   Clear
2:53 PM 63.0 °F - - N/A% 30.26 in 10.0 mi Variable 6.9 mph - N/A   Clear
3:53 PM 62.1 °F - - N/A% 30.25 in 10.0 mi West 11.5 mph - N/A   Clear
4:53 PM 62.1 °F - - N/A% 30.23 in 10.0 mi West 8.1 mph - N/A   Clear
5:53 PM 62.1 °F - -13.0 °F 4% 30.21 in 10.0 mi NW 8.1 mph - N/A   Clear
6:53 PM 57.9 °F - 26.1 °F 30% 30.21 in 10.0 mi NW 10.4 mph - N/A   Clear
7:53 PM 55.9 °F - -0.0 °F 10% 30.19 in 10.0 mi North 9.2 mph - N/A   Clear
8:53 PM 53.1 °F - 15.1 °F 22% 30.18 in 10.0 mi North 10.4 mph - N/A   Clear
9:53 PM 50.0 °F - 30.9 °F 48% 30.20 in 10.0 mi North 8.1 mph - N/A   Clear
10:53 PM 48.0 °F - -15.0 °F 7% 30.20 in 10.0 mi North 4.6 mph - N/A   Clear
11:53 PM 46.9 °F - - N/A% 30.19 in 10.0 mi Calm Calm - N/A   Clear